Flag for Germany Weather for the Past 2 Weeks in Fürstenwalde/Spree, Brandenburg, Germany

Now
64 °F

Sunny.


Feels Like: 64 °F
Forecast: 47 / 70 °F
Wind: 3 mph from East

Location: Berlin-Schoenefeld

Current Time: May 5, 2016 at 8:32:18 PM

Latest Report: May 5, 2016 at 7:50 PM


Visibility: 10 mi

Pressure: 30.24 "Hg

Humidity: 46%

Dew Point: 43 °F

Location of Fürstenwalde/SpreeLocation

Historic Weather in Fürstenwalde/Spree — Graph

°F

Fürstenwalde/Spree Temperature Yesterday

Maximum temperature yesterday: 57 °F (at 3:50 PM)
Minimum temperature yesterday: 45 °F (at 6:20 AM)
Average temperature yesterday: 51 °F

High & Low Weather Summary for the Past Weeks

 TemperatureHumidityPressure
High68 °F (May 5, 3:20 PM)100% (Apr 25, 12:50 AM)30.39 "Hg (Apr 25, 12:50 AM)
Low30 °F (Apr 29, 5:20 AM)28% (Apr 30, 3:50 PM)29.47 "Hg (Apr 26, 4:20 AM)
Average47 °F65%29.99 "Hg
* Reported Apr 20 7:20 PM — May 5 7:20 PM, Fürstenwalde/Spree, Weather by CustomWeather, © 2016

Note: Actual official high and low records may vary slightly from our data, if they occured in-between our weather recording intervals... More about our weather records

Advertising

Fürstenwalde/Spree Weather History for the Previous 24 Hours

Scroll right to see more
 ConditionsComfort  
Time TempWeatherWind HumidityBarometerVisibility
7:20 PM
Thu, May 5
64 °FSunny.1 mph43%30.24 "Hg10 mi
6:50 PM66 °FPassing clouds.6 mph37%30.24 "HgN/A
6:20 PM66 °FSunny.2 mph37%30.24 "Hg10 mi
5:50 PM68 °FSunny.2 mph38%30.27 "Hg10 mi
5:20 PM68 °FSunny.2 mph33%30.27 "Hg10 mi
4:50 PM68 °FPassing clouds.3 mph33%30.27 "HgN/A
4:20 PM68 °FSunny.3 mph35%30.27 "Hg10 mi
3:50 PM66 °FSunny.2 mph37%30.30 "Hg10 mi
3:20 PM68 °FSunny.7 mph40%30.30 "Hg10 mi
2:50 PM66 °FSunny.3 mph35%30.30 "Hg10 mi
2:20 PM64 °FSunny.5 mph37%30.33 "Hg10 mi
1:50 PM64 °FSunny.6 mph40%30.33 "Hg10 mi
1:20 PM64 °FPassing clouds.5 mph37%30.33 "HgN/A
12:50 PM63 °FSunny.1 mph39%30.36 "Hg10 mi
12:20 PM63 °FSunny.3 mph37%30.36 "Hg10 mi
11:50 AM61 °FSunny.3 mph34%30.36 "Hg10 mi
11:20 AM61 °FSunny.3 mph36%30.36 "Hg10 mi
10:50 AM61 °FPassing clouds.3 mph31%30.36 "HgN/A
10:20 AM59 °FSunny.3 mph39%30.39 "Hg10 mi
9:50 AM57 °FSunny.5 mph41%30.36 "Hg10 mi
9:20 AM57 °FPassing clouds.5 mph44%30.39 "HgN/A
8:50 AM55 °FPassing clouds.5 mph44%30.39 "HgN/A
8:20 AM54 °FPassing clouds.6 mph51%30.39 "HgN/A
7:50 AM52 °FPassing clouds.5 mph58%30.39 "HgN/A
7:20 AM50 °FPassing clouds.3 mph67%30.39 "HgN/A
6:50 AM48 °FSunny.1 mph76%30.39 "Hg10 mi
6:20 AM46 °FClear.5 mph76%30.36 "Hg10 mi
5:50 AM45 °FClear.3 mph76%30.36 "Hg10 mi
5:20 AM46 °FClear.3 mph76%30.36 "Hg10 mi
4:50 AM46 °FClear.3 mph76%30.36 "Hg10 mi
4:20 AM48 °FClear.3 mph71%30.36 "Hg10 mi
3:50 AM48 °FClear.3 mph66%30.36 "Hg10 mi
3:20 AM46 °FClear.3 mph71%30.36 "Hg10 mi
2:50 AM46 °FClear.2 mph71%30.36 "Hg10 mi
2:20 AM46 °FClear.2 mph71%30.39 "Hg10 mi
1:50 AM48 °FPassing clouds.5 mph62%30.39 "HgN/A
1:20 AM48 °FClear.6 mph62%30.39 "Hg10 mi
12:50 AM50 °FClear.7 mph58%30.39 "Hg10 mi
12:20 AM50 °FClear.7 mph58%30.39 "Hg10 mi
11:50 PM
Wed, May 4
50 °FClear.7 mph58%30.39 "Hg10 mi
11:20 PM48 °FClear.6 mph58%30.36 "Hg10 mi
10:50 PM52 °FClear.6 mph50%30.36 "Hg10 mi
10:20 PM52 °FClear.7 mph50%30.36 "Hg10 mi
9:50 PM54 °FClear.8 mph47%30.36 "Hg10 mi
9:20 PM54 °FSunny.6 mph47%30.33 "Hg10 mi
8:50 PM54 °FSunny.8 mph51%30.33 "Hg10 mi
8:20 PM55 °FSunny.10 mph44%30.33 "Hg10 mi
Weather by CustomWeather, © 2016

See weather overviewHow to use our weather pages